• en Belgique
  • Liste des pays
  • À 7 jours
  • Température de l'eau
  • Carte satellitaire
  • Carte météo
  • Widgets météo
  • user-avatar
    Se connecter

    Météo par heure à Perth

    Ce jour, 23 Octobre, Mardi

    Heure Température Précipitation Vent Pression Humidité
    00:00 +12°C° 0 mm 3 m/s 763 mmHg 84%
    01:00 +12°C° 0 mm 2 m/s 763 mmHg 85%
    02:00 +12°C° 0 mm 2 m/s 763 mmHg 88%
    03:00 +10°C° 0 mm 2 m/s 763 mmHg 88%
    04:00 +10°C° 0 mm 2 m/s 763 mmHg 88%
    05:00 +10°C° 0 mm 2 m/s 763 mmHg 88%
    06:00 +13°C° 0 mm 2 m/s 763 mmHg 79%
    07:00 +15°C° 0 mm 2 m/s 763 mmHg 71%
    08:00 +16°C° 0 mm 2 m/s 763 mmHg 63%
    09:00 +18°C° 0 mm 2 m/s 762 mmHg 58%
    10:00 +19°C° 0 mm 2 m/s 762 mmHg 53%
    11:00 +21°C° 0 mm 2 m/s 762 mmHg 47%
    12:00 +21°C° 0 mm 2 m/s 761 mmHg 46%
    13:00 +22°C° 0 mm 3 m/s 761 mmHg 45%
    14:00 +22°C° 0 mm 3 m/s 760 mmHg 46%
    15:00 +21°C° 0 mm 3 m/s 760 mmHg 49%
    16:00 +21°C° 0 mm 4 m/s 760 mmHg 51%
    17:00 +20°C° 0 mm 4 m/s 760 mmHg 54%
    18:00 +18°C° 0 mm 4 m/s 760 mmHg 60%
    19:00 +17°C° 0 mm 3 m/s 760 mmHg 67%
    20:00 +14°C° 0 mm 3 m/s 760 mmHg 74%
    21:00 +13°C° 0 mm 3 m/s 760 mmHg 77%
    22:00 +14°C° 0 mm 2 m/s 760 mmHg 79%
    23:00 +13°C° 0 mm 2 m/s 760 mmHg 82%

    Demain, 24 Octobre, Mercredi

    Heure Température Précipitation Vent Pression Humidité
    00:00 +13°C° 0 mm 2 m/s 760 mmHg 83%
    01:00 +13°C° 0 mm 2 m/s 760 mmHg 84%
    02:00 +12°C° 0 mm 2 m/s 759 mmHg 86%
    03:00 +12°C° 0 mm 1 m/s 759 mmHg 86%
    04:00 +12°C° 0 mm 1 m/s 759 mmHg 86%
    05:00 +12°C° 0 mm 1 m/s 759 mmHg 86%
    06:00 +14°C° 0 mm 1 m/s 759 mmHg 80%
    07:00 +15°C° 0 mm 1 m/s 759 mmHg 74%
    08:00 +18°C° 0 mm 1 m/s 759 mmHg 68%
    09:00 +19°C° 0 mm 1 m/s 759 mmHg 63%
    10:00 +21°C° 0 mm 1 m/s 758 mmHg 57%
    11:00 +21°C° 0 mm 2 m/s 758 mmHg 52%
    12:00 +23°C° 0 mm 2 m/s 758 mmHg 52%
    13:00 +22°C° 0 mm 3 m/s 758 mmHg 51%
    14:00 +24°C° 0 mm 3 m/s 757 mmHg 51%
    15:00 +22°C° 0 mm 4 m/s 757 mmHg 55%
    16:00 +21°C° 0 mm 4 m/s 757 mmHg 59%
    17:00 +21°C° 0 mm 4 m/s 757 mmHg 64%
    18:00 +19°C° 0 mm 4 m/s 758 mmHg 71%
    19:00 +18°C° 0 mm 4 m/s 758 mmHg 79%
    20:00 +17°C° 0 mm 4 m/s 759 mmHg 86%
    21:00 +15°C° 0 mm 4 m/s 759 mmHg 87%
    22:00 +15°C° 0 mm 4 m/s 759 mmHg 88%
    23:00 +15°C° 0 mm 4 m/s 760 mmHg 89%

    Après-demain, 25 Octobre, Jeudi

    Heure Température Précipitation Vent Pression Humidité
    00:00 +15°C° 0 mm 5 m/s 760 mmHg 87%
    01:00 +15°C° 0 mm 5 m/s 760 mmHg 85%
    02:00 +14°C° 0 mm 5 m/s 760 mmHg 83%
    03:00 +14°C° 0 mm 5 m/s 760 mmHg 82%
    04:00 +14°C° 0 mm 5 m/s 760 mmHg 80%
    05:00 +13°C° 0 mm 5 m/s 761 mmHg 79%
    06:00 +15°C° 0 mm 5 m/s 761 mmHg 72%
    07:00 +16°C° 0 mm 5 m/s 761 mmHg 66%
    08:00 +19°C° 0 mm 5 m/s 761 mmHg 60%
    09:00 +21°C° 0 mm 5 m/s 761 mmHg 52%
    10:00 +23°C° 0 mm 5 m/s 761 mmHg 45%
    11:00 +27°C° 0 mm 4 m/s 760 mmHg 38%
    12:00 +28°C° 0 mm 5 m/s 760 mmHg 37%
    13:00 +28°C° 0 mm 5 m/s 760 mmHg 37%
    14:00 +29°C° 0 mm 6 m/s 759 mmHg 37%
    15:00 +28°C° 0 mm 6 m/s 759 mmHg 42%
    16:00 +27°C° 0 mm 7 m/s 759 mmHg 47%
    17:00 +26°C° 0 mm 7 m/s 759 mmHg 52%
    18:00 +24°C° 0 mm 7 m/s 760 mmHg 57%
    19:00 +22°C° 0 mm 6 m/s 760 mmHg 63%
    20:00 +21°C° 0 mm 5 m/s 761 mmHg 68%
    21:00 +20°C° 0 mm 5 m/s 761 mmHg 69%
    22:00 +20°C° 0 mm 5 m/s 761 mmHg 71%
    23:00 +19°C° 0 mm 5 m/s 761 mmHg 72%

    26 Octobre, Vendredi

    Heure Température Précipitation Vent Pression Humidité
    00:00 +18°C° 0 mm 4 m/s 761 mmHg 74%
    01:00 +18°C° 0 mm 4 m/s 761 mmHg 75%
    02:00 +17°C° 0 mm 3 m/s 760 mmHg 77%
    03:00 +16°C° 0 mm 3 m/s 760 mmHg 79%
    04:00 +16°C° 0 mm 3 m/s 760 mmHg 81%
    05:00 +14°C° 0 mm 4 m/s 760 mmHg 83%
    06:00 +17°C° 0 mm 4 m/s 761 mmHg 76%
    07:00 +18°C° 0 mm 4 m/s 761 mmHg 69%
    08:00 +20°C° 0 mm 5 m/s 762 mmHg 61%
    09:00 +22°C° 0 mm 5 m/s 762 mmHg 54%
    10:00 +26°C° 0 mm 5 m/s 761 mmHg 47%
    11:00 +28°C° 0 mm 5 m/s 761 mmHg 39%
    12:00 +29°C° 0 mm 5 m/s 761 mmHg 38%
    13:00 +30°C° 0 mm 5 m/s 760 mmHg 37%
    14:00 +32°C° 0 mm 6 m/s 759 mmHg 36%
    15:00 +29°C° 0 mm 6 m/s 759 mmHg 40%
    16:00 +28°C° 0 mm 6 m/s 760 mmHg 45%
    17:00 +27°C° 0 mm 7 m/s 760 mmHg 49%
    18:00 +26°C° 0 mm 6 m/s 760 mmHg 53%
    19:00 +23°C° 0 mm 6 m/s 761 mmHg 58%
    20:00 +22°C° 0 mm 5 m/s 762 mmHg 62%
    21:00 +21°C° 0 mm 5 m/s 762 mmHg 64%
    22:00 +21°C° 0 mm 5 m/s 762 mmHg 65%
    23:00 +20°C° 0 mm 5 m/s 763 mmHg 67%

    27 Octobre, Samedi

    Heure Température Précipitation Vent Pression Humidité
    00:00 +19°C° 0 mm 5 m/s 762 mmHg 69%
    01:00 +18°C° 0 mm 4 m/s 762 mmHg 71%
    02:00 +17°C° 0 mm 4 m/s 762 mmHg 72%
    03:00 +15°C° 0 mm 4 m/s 763 mmHg 75%
    04:00 +14°C° 0 mm 4 m/s 763 mmHg 78%
    05:00 +14°C° 0 mm 4 m/s 763 mmHg 80%
    06:00 +15°C° 0 mm 4 m/s 763 mmHg 73%
    07:00 +17°C° 0 mm 3 m/s 764 mmHg 66%
    08:00 +19°C° 0 mm 3 m/s 764 mmHg 59%
    09:00 +21°C° 0 mm 3 m/s 764 mmHg 50%
    10:00 +25°C° 0 mm 3 m/s 764 mmHg 41%
    11:00 +27°C° 0 mm 3 m/s 763 mmHg 31%
    12:00 +28°C° 0 mm 4 m/s 763 mmHg 30%
    13:00 +29°C° 0 mm 4 m/s 762 mmHg 29%
    14:00 +30°C° 0 mm 5 m/s 761 mmHg 27%
    15:00 +29°C° 0 mm 5 m/s 761 mmHg 31%
    16:00 +28°C° 0 mm 5 m/s 761 mmHg 35%
    17:00 +27°C° 0 mm 6 m/s 761 mmHg 40%
    18:00 +25°C° 0 mm 5 m/s 762 mmHg 48%
    19:00 +22°C° 0 mm 5 m/s 762 mmHg 55%
    20:00 +20°C° 0 mm 5 m/s 763 mmHg 63%
    21:00 +20°C° 0 mm 5 m/s 763 mmHg 64%
    22:00 +19°C° 0 mm 4 m/s 763 mmHg 64%
    23:00 +19°C° 0 mm 4 m/s 763 mmHg 64%

    28 Octobre, Dimanche

    Heure Température Précipitation Vent Pression Humidité
    00:00 +18°C° 0 mm 4 m/s 763 mmHg 65%
    01:00 +18°C° 0 mm 4 m/s 763 mmHg 66%
    02:00 +17°C° 0 mm 4 m/s 763 mmHg 67%
    03:00 +15°C° 0 mm 4 m/s 763 mmHg 68%
    04:00 +15°C° 0 mm 4 m/s 763 mmHg 69%
    05:00 +14°C° 0 mm 4 m/s 763 mmHg 70%
    06:00 +17°C° 0 mm 4 m/s 763 mmHg 64%
    07:00 +18°C° 0 mm 3 m/s 763 mmHg 58%
    08:00 +20°C° 0 mm 3 m/s 763 mmHg 52%
    09:00 +22°C° 0 mm 3 m/s 763 mmHg 45%
    10:00 +26°C° 0 mm 2 m/s 762 mmHg 39%
    11:00 +29°C° 0 mm 2 m/s 762 mmHg 33%
    12:00 +30°C° 0 mm 2 m/s 761 mmHg 31%
    13:00 +31°C° 0 mm 3 m/s 760 mmHg 30%
    14:00 +31°C° 0 mm 3 m/s 760 mmHg 29%
    15:00 +30°C° 0 mm 3 m/s 760 mmHg 33%
    16:00 +29°C° 0 mm 4 m/s 760 mmHg 38%
    17:00 +28°C° 0 mm 4 m/s 759 mmHg 43%
    18:00 +26°C° 0 mm 4 m/s 760 mmHg 52%
    19:00 +22°C° 0 mm 4 m/s 760 mmHg 60%
    20:00 +20°C° 0 mm 4 m/s 760 mmHg 69%
    21:00 +20°C° 0 mm 4 m/s 760 mmHg 71%
    22:00 +19°C° 0 mm 4 m/s 760 mmHg 73%
    23:00 +18°C° 0 mm 4 m/s 760 mmHg 74%

    29 Octobre, Lundi

    Heure Température Précipitation Vent Pression Humidité
    00:00 +18°C° 0 mm 3 m/s 760 mmHg 75%
    01:00 +17°C° 0 mm 3 m/s 760 mmHg 76%
    02:00 +17°C° 0 mm 3 m/s 759 mmHg 77%
    03:00 +17°C° 0 mm 3 m/s 759 mmHg 79%
    04:00 +16°C° 0 mm 3 m/s 759 mmHg 80%
    05:00 +16°C° 0 mm 3 m/s 759 mmHg 81%
    06:00 +18°C° 0 mm 3 m/s 759 mmHg 74%
    07:00 +20°C° 0 mm 3 m/s 760 mmHg 66%
    08:00 +22°C° 0 mm 3 m/s 760 mmHg 58%
    09:00 +25°C° 0 mm 4 m/s 760 mmHg 51%
    10:00 +27°C° 0 mm 4 m/s 759 mmHg 44%
    11:00 +28°C° 0 mm 4 m/s 759 mmHg 38%
    12:00 +29°C° 0 mm 5 m/s 759 mmHg 36%
    13:00 +29°C° 0 mm 5 m/s 758 mmHg 35%
    14:00 +29°C° 0 mm 6 m/s 758 mmHg 34%
    15:00 +28°C° 0 mm 6 m/s 758 mmHg 39%
    16:00 +27°C° 0 mm 6 m/s 758 mmHg 44%
    17:00 +24°C° 0 mm 6 m/s 758 mmHg 49%
    18:00 +22°C° 0 mm 6 m/s 758 mmHg 59%
    19:00 +20°C° 0 mm 6 m/s 759 mmHg 70%
    20:00 +19°C° 0 mm 5 m/s 759 mmHg 81%
    21:00 +17°C° 0 mm 5 m/s 760 mmHg 82%
    22:00 +17°C° 0 mm 5 m/s 760 mmHg 83%
    23:00 +16°C° 0 mm 5 m/s 760 mmHg 84%
    Voir plus